Theta_e
340 340 339 337 336 334 334 334 333 334 334 332 330 329 327 326 325 324 320 320 328 331 329 320 318 317 318 319 320 322 324 326 327 326 327 325 324 327 329 328 331 330 330
339 340 338 337 335 335 334 334 335 334 331 328 326 324 322 321 318 318 317 318 325 327 325 316 312 309 310 313 317 319 320 324 327 327 326 325 326 327 328 327 329 330 330
339 339 338 336 335 335 334 335 334 332 328 326 324 322 319 318 316 312 309 311 320 322 321 313 310 309 308 309 311 315 320 321 325 327 327 327 326 328 329 326 330 330 330
338 338 337 336 335 335 335 335 333 328 325 323 320 318 317 315 310 308 309 309 310 312 314 312 308 308 309 309 310 312 316 322 324 327 328 329 330 329 328 326 327 327 327
337 337 337 336 335 334 333 331 328 326 322 319 318 317 316 313 310 308 308 309 310 312 314 315 312 310 316 317 317 314 317 322 325 327 329 330 330 329 329 329 325 325 327
337 336 336 335 334 332 330 328 327 322 320 318 317 315 315 313 310 309 310 314 316 318 318 318 317 317 318 317 316 317 319 322 325 327 328 328 328 327 330 321 321 324 326
337 336 336 335 333 331 329 328 323 321 318 317 316 314 314 314 317 318 318 318 319 318 319 319 319 319 318 315 313 315 317 320 322 323 325 328 327 326 326 323 324 326 327
338 338 337 334 332 330 327 323 321 318 317 316 315 319 316 321 321 320 319 319 319 318 317 317 317 317 317 316 315 313 312 316 318 319 322 326 328 327 325 326 326 325 326
337 338 335 333 331 327 322 320 318 318 317 318 321 322 321 323 323 322 320 320 319 318 318 317 317 317 316 316 316 315 313 311 311 314 316 318 324 323 323 325 322 321 321
337 334 331 328 323 321 319 318 318 318 318 323 325 324 324 324 324 323 321 320 320 319 318 318 317 317 316 316 316 316 316 314 313 311 310 314 315 318 320 320 317 316 314
333 327 323 319 319 317 317 318 319 319 324 326 326 325 325 325 325 324 323 321 319 318 318 318 318 316 315 316 316 316 316 316 315 315 313 311 312 315 317 315 315 313 311
324 320 318 316 315 315 317 318 321 324 327 328 327 326 326 327 326 324 323 321 318 317 317 317 317 316 316 314 317 317 317 316 316 316 314 313 312 311 311 311 311 311 311
319 320 318 316 314 317 319 324 325 326 327 327 327 327 326 326 326 323 319 318 317 318 317 317 316 313 311 312 313 315 315 316 316 317 317 315 313 312 317 319 318 314 311
322 323 320 319 319 322 323 325 327 327 327 328 327 326 324 324 322 319 318 318 317 316 314 311 310 310 309 309 309 310 311 311 313 314 314 316 316 315 314 313 318 319 318
323 324 323 321 321 321 324 326 327 327 328 329 327 325 324 322 320 318 317 315 311 310 310 309 308 308 307 307 305 304 304 306 307 307 307 308 309 311 314 313 313 316 318
323 324 325 324 322 324 325 325 326 327 328 329 327 324 322 320 318 317 313 310 310 309 308 307 307 306 305 304 303 302 301 301 301 302 303 304 306 308 310 311 311 312 313
325 326 326 326 327 325 324 325 325 327 327 328 325 320 320 319 317 312 310 310 309 308 307 307 306 305 304 303 302 301 300 300 302 303 303 304 304 305 307 308 309 310 311
326 327 327 327 325 324 324 325 323 321 324 324 319 318 316 313 311 310 310 310 309 308 306 305 303 302 301 300 300 300 300 301 302 303 304 304 305 306 306 305 305 306 308
327 326 326 325 325 325 322 323 318 317 319 317 314 313 311 310 311 310 311 308 305 304 303 302 301 300 300 301 301 301 300 300 303 302 302 301 301 301 301 301 301 301 301
327 326 324 325 325 325 322 315 315 314 313 313 313 313 311 312 309 308 306 303 303 301 301 300 300 300 301 302 302 301 300 302 301 301 299 300 299 299 299 299 298 298 298
326 325 325 323 324 315 313 313 313 313 313 314 312 309 310 309 306 306 304 303 302 301 299 298 298 299 300 300 301 299 299 302 298 300 297 299 298 298 298 297 296 296 296
326 326 326 324 319 314 315 316 316 315 313 311 309 309 307 306 305 304 303 303 303 301 297 296 297 299 299 299 299 299 297 299 300 298 297 297 296 297 296 295 294 295 295
316 316 318 320 316 315 316 314 313 313 311 309 306 306 305 304 304 305 305 303 299 297 297 296 298 299 298 298 298 299 296 296 296 296 295 296 296 295 295 294 294 295 294
313 313 313 313 313 313 312 312 313 312 312 310 306 304 304 304 303 305 303 299 298 298 296 296 297 297 297 297 297 298 296 295 296 295 295 295 294 294 294 294 294 295 294
311 312 312 312 312 312 313 312 312 311 309 307 305 305 305 304 304 302 300 298 298 296 295 294 295 295 295 295 295 294 293 295 295 294 294 293 293 293 293 293 294 294 293
312 313 313 313 313 312 312 312 311 309 308 307 306 305 304 302 302 300 299 298 296 294 294 293 293 293 292 292 292 292 292 293 293 292 292 292 292 292 291 293 293 293 292
Wind_Speed
19 22 22 22 22 22 21 21 20 19 18 17 17 16 15 15 14 13 13 14 15 16 15 14 14 13 13 12 11 10 8 8 6 5 4 4 3 4 3 4 6 6 6
24 22 22 23 23 22 21 20 18 17 16 16 16 15 15 14 15 15 15 16 16 16 16 16 16 16 14 13 12 11 10 8 6 5 5 4 3 3 5 6 2 4 3
25 23 22 22 22 22 21 19 17 16 16 15 15 14 15 15 15 16 17 17 17 15 15 15 15 15 15 15 14 12 11 9 7 7 5 5 4 4 6 6 5 4 2
25 23 21 21 22 21 20 18 17 16 15 14 14 14 14 15 16 17 17 17 17 16 16 16 15 16 16 16 16 16 14 11 8 6 5 4 3 5 5 3 6 8 6
24 23 21 21 21 20 19 18 16 15 15 14 14 14 15 15 16 16 17 17 17 17 16 16 16 17 19 19 19 18 17 14 11 8 5 3 3 6 8 10 9 7 6
24 23 21 20 20 19 18 17 16 15 15 14 14 14 15 15 16 16 16 16 16 17 17 18 18 19 20 19 18 17 17 16 13 11 7 4 5 8 9 11 13 10 7
23 22 21 19 18 18 17 16 16 15 14 14 14 14 15 15 16 17 16 17 18 17 18 18 18 17 18 20 19 17 16 17 15 12 10 8 9 10 11 10 11 9 7
25 22 20 18 17 16 16 15 15 14 14 14 14 14 15 15 16 16 16 16 16 17 17 17 17 16 17 18 19 21 16 16 15 14 13 10 11 12 12 11 12 13 13
22 22 21 19 16 15 15 15 14 14 14 14 14 14 13 13 13 13 13 13 13 13 13 14 15 16 16 18 18 19 19 18 16 13 12 10 10 11 11 13 13 13 13
22 21 19 17 16 16 16 15 14 14 14 15 14 13 12 11 9 9 10 9 9 8 8 9 11 13 15 15 17 18 18 18 18 17 13 11 11 12 13 12 13 14 15
21 20 18 17 17 16 16 16 14 14 13 13 11 10 9 8 7 6 5 6 7 6 6 7 8 11 14 13 12 14 17 18 17 17 16 13 12 11 12 13 15 16 16
23 21 19 18 18 18 17 17 16 16 14 12 11 9 8 5 4 4 3 3 5 6 7 7 8 9 12 14 12 12 12 13 15 16 16 15 14 13 14 15 17 18 17
25 22 22 20 20 19 19 18 17 16 13 10 9 8 7 5 5 4 4 5 5 7 7 7 9 11 13 15 15 14 14 14 14 14 16 18 18 19 16 16 18 20 19
27 27 22 20 20 19 17 16 15 14 11 9 6 5 5 7 6 6 6 6 6 7 8 9 11 13 14 15 15 15 14 14 13 13 14 15 18 20 21 20 18 19 23
27 25 22 20 18 16 15 15 14 11 9 8 6 5 5 5 6 6 7 7 7 8 10 11 12 14 16 17 17 17 16 15 15 15 16 16 16 16 17 18 19 20 20
23 21 20 18 14 13 11 13 13 12 11 11 9 6 4 4 5 6 7 6 7 10 11 13 15 16 17 16 17 18 18 17 17 16 15 16 16 16 17 20 21 21 21
20 20 19 13 7 9 9 10 11 13 13 11 7 3 4 6 7 7 5 6 9 10 11 12 13 13 16 18 19 20 20 20 18 16 17 16 16 16 15 15 17 19 22
17 15 15 16 4 5 7 7 7 6 6 5 3 6 8 8 6 5 7 9 9 11 12 12 14 17 19 21 22 21 20 19 17 15 10 10 9 10 11 14 16 17 18
18 21 22 16 11 9 2 8 4 4 7 11 11 9 7 6 6 8 10 8 8 10 11 14 16 17 17 15 16 14 17 18 13 8 12 14 13 14 15 18 20 22 24
22 26 24 13 10 5 7 14 14 16 16 12 8 4 3 7 5 6 6 8 12 13 16 18 18 16 14 14 12 13 15 9 8 9 17 13 14 16 18 22 28 31 31
26 24 15 14 8 18 21 21 16 13 9 3 4 4 1 0 3 7 8 11 14 18 18 18 19 18 16 19 9 20 11 3 17 7 22 14 19 21 21 26 29 28 30
22 16 15 14 17 16 16 11 5 8 7 7 5 3 1 2 4 7 11 16 19 18 16 18 18 13 10 13 9 6 3 7 3 19 19 20 26 20 28 26 27 24 23
21 19 19 20 21 16 9 9 9 6 5 6 5 3 2 3 6 12 18 17 13 14 17 18 13 12 11 11 11 5 3 2 14 9 25 22 23 29 18 30 27 23 19
18 18 17 15 13 11 8 3 4 3 6 5 5 2 3 7 9 17 18 12 13 15 15 12 11 11 10 8 7 6 10 12 4 8 4 20 19 23 29 29 26 23 17
11 12 12 10 7 4 2 2 2 2 2 2 1 4 6 11 14 16 12 10 9 10 7 8 7 7 8 8 10 13 14 11 9 6 10 15 21 20 24 27 21 21 17
8 9 8 7 6 2 1 2 3 3 3 1 4 7 10 14 16 12 10 8 7 9 11 11 10 9 9 9 10 11 11 7 8 8 5 13 15 16 26 17 19 18 17
Wind_Direction
163 159 162 147 140 137 130 125 122 116 113 110 103 99 97 95 90 85 78 75 71 65 62 58 56 52 48 41 33 25 18 15 358 341 338 348 349 353 345 354 22 32 45
159 160 158 148 143 137 130 126 121 117 115 109 105 103 100 98 94 89 83 78 76 73 67 62 57 53 50 46 43 30 19 6 357 329 324 330 290 308 324 326 345 356 10
157 157 156 149 142 135 131 126 124 122 113 108 106 104 102 98 92 87 83 81 77 73 67 59 54 52 46 39 39 32 28 10 358 346 325 327 295 322 328 348 340 331 333
156 155 153 148 141 137 133 131 128 120 117 114 111 107 101 95 91 87 85 79 72 66 60 55 49 48 45 41 36 28 24 15 14 10 7 27 341 329 335 314 314 304 298
153 154 153 151 146 141 137 134 133 127 122 117 111 105 100 96 90 86 80 73 65 59 53 47 48 49 49 41 35 32 27 19 18 22 27 32 348 323 311 311 316 292 295
153 155 155 155 149 144 140 141 135 130 125 119 115 109 102 97 92 85 79 71 68 64 58 56 55 60 50 39 29 33 29 27 21 15 354 355 340 336 332 324 311 297 308
153 157 158 158 151 149 146 143 139 134 126 123 116 108 106 102 95 88 82 80 79 67 66 59 56 55 43 41 33 33 28 31 30 23 10 357 350 352 331 341 357 344 329
160 161 161 161 157 153 148 147 142 135 132 127 116 111 112 105 99 92 83 81 74 70 64 59 55 47 40 37 31 30 25 20 25 26 23 2 351 0 6 359 348 342 333
164 164 167 165 160 156 150 148 144 139 132 124 120 116 116 108 99 94 81 75 72 67 57 51 47 40 33 29 27 23 25 23 14 10 12 2 347 346 342 341 338 334 331
166 170 169 166 164 159 155 153 150 142 140 138 133 131 123 115 106 99 87 78 69 56 45 34 37 30 24 21 15 12 12 15 17 15 6 358 340 325 328 326 327 329 329
172 174 172 168 166 161 160 154 149 144 146 148 140 139 143 128 118 101 82 64 62 44 28 14 28 29 20 18 9 0 357 356 356 360 6 5 353 340 327 324 321 322 324
178 177 173 172 169 164 161 155 155 157 158 159 158 156 157 157 142 126 111 77 60 45 48 49 43 20 15 12 7 354 342 338 335 334 336 340 341 337 333 325 318 315 314
179 181 178 173 168 165 164 163 166 171 171 162 172 178 176 171 171 152 111 84 66 63 62 41 17 15 19 14 7 357 342 333 324 313 315 317 318 319 313 311 313 318 317
184 186 182 180 177 173 173 176 177 182 182 180 187 190 188 156 149 133 108 84 59 41 28 21 18 16 6 4 355 349 342 335 331 330 325 316 308 309 308 308 306 305 304
192 190 190 190 187 187 187 193 195 198 202 209 217 209 180 155 143 126 98 72 53 40 32 24 11 6 1 355 353 351 349 344 336 332 325 319 314 309 307 306 305 302 299
200 198 198 202 203 202 216 220 217 220 224 226 224 213 202 169 146 120 98 74 33 19 18 10 7 0 355 356 354 353 348 342 338 335 324 317 316 308 301 296 296 296 296
203 203 200 195 219 234 252 259 255 253 244 225 214 206 164 147 135 119 96 52 26 12 3 358 351 347 344 347 345 343 340 336 337 333 330 327 317 313 316 313 306 306 299
197 191 175 170 163 109 87 65 260 248 217 198 159 122 122 125 111 80 41 21 4 349 343 347 347 343 341 341 338 337 335 334 337 340 360 10 10 359 348 351 344 336 324
186 168 149 149 126 92 73 216 210 115 124 124 118 116 94 64 33 5 4 356 11 353 345 347 345 344 346 345 340 338 328 333 341 11 2 1 357 356 350 341 336 333 331
153 150 143 119 104 197 178 143 118 112 106 105 102 86 90 12 344 13 14 5 3 360 358 356 354 352 359 354 345 334 337 320 355 10 1 357 352 349 341 335 331 326 322
129 128 136 161 179 150 125 116 112 110 125 141 149 136 133 235 341 2 3 0 1 358 354 349 350 352 351 353 346 342 333 193 317 303 344 329 333 330 330 328 326 322 317
122 131 169 173 158 149 136 137 164 163 157 149 161 180 218 306 341 353 0 352 342 338 343 348 345 348 341 357 348 325 339 301 280 317 322 323 320 319 323 320 321 318 316
134 129 128 141 149 154 165 151 155 170 171 176 181 195 238 305 349 354 340 338 348 353 350 347 352 358 353 353 7 13 344 310 337 310 317 316 324 322 318 317 318 313 310
120 122 125 133 140 141 146 162 182 254 230 232 215 216 337 346 335 341 340 344 342 339 341 352 350 348 349 350 346 323 315 304 304 307 318 308 310 312 315 315 317 312 307
129 129 129 134 138 146 211 264 261 299 71 118 180 314 318 316 317 330 325 318 330 345 355 353 354 350 341 327 327 325 323 315 290 297 308 325 313 304 300 303 302 309 310
129 126 142 132 140 161 298 354 4 32 73 20 305 293 309 313 308 298 283 289 324 346 348 345 337 330 328 323 324 321 318 307 301 303 301 315 320 318 325 323 308 306 323